{"data":{"norad_id":47792,"intl_designator":"2021-018F","name":"STARLINK-2334","alt_names":[],"object_type":"PAYLOAD","status":"ACTIVE","operator":null,"country":"US","launch_date":"2021-03-11","launch_site_code":"AFETR","launch_vehicle":null,"mission":null,"orbit_class":"UNKNOWN","rcs_meters":null,"size_class":null,"mass_kg":null,"dimensions":null,"purposes":["comms"],"wikipedia_slug":null,"has_3d_model":false,"image_url":null,"decayed_at":null,"tle_current":{"epoch":"2026-05-24T23:29:20.504256Z","epoch_age_seconds":73360,"freshness":"FRESH","line1":"1 47792U 21018F   26144.97870954  .00002546  00000+0  93770-4 0  9993","line2":"2 47792  53.1577 244.3203 0001277  72.3782 287.7359 15.31701372288451","mean_motion":15.31701372,"eccentricity":0.0001277,"inclination_deg":53.1577,"raan_deg":244.3203,"arg_perigee_deg":72.3782,"mean_anomaly_deg":287.7359,"bstar":9.377e-5,"rev_number":28845,"period_min":94.013103750096,"perigee_km":469.86130429808,"apogee_km":471.61050643811,"semimajor_km":6848.8729053681,"source":"CELESTRAK","updated_at":"2026-05-25T13:38:16.598465Z"}}}